Vorticity
-2 -4 -4 -6 -5 3 7 7 7 7 7 7 8 9 10 11 12 12 12 13 12 11 11 11 9 9 8 8 7 7 7 6 6 6 7 9 10 10 10 8 5 2 0 0 3 5 7 8 8 9 9 10 11 11 12 12 13 13 12 12 11 10 9 8 7 6 6 6 4 4 4 3 4 4 4 5 5 6 7 7 7 6 6 6 5
8 6 4 1 0 8 13 11 10 11 12 13 13 12 12 12 12 11 11 10 10 8 8 7 7 7 6 6 5 4 4 5 7 8 8 7 6 4 3 2 1 2 4 7 9 9 9 9 10 10 11 11 11 11 11 11 11 10 9 8 8 7 6 5 5 4 4 5 5 5 6 6 7 7 7 7 7 7 7 7 8 8 8 8 7
11 11 9 10 13 18 20 18 15 15 14 13 11 9 8 10 12 13 12 10 8 8 7 6 5 5 4 4 5 7 9 10 9 7 5 5 5 5 6 7 8 9 10 10 9 9 9 9 10 11 11 12 12 12 11 10 9 8 8 7 6 6 6 5 5 5 5 7 7 8 9 9 9 9 9 8 8 8 8 8 9 10 10 11 11
16 19 19 20 22 20 15 13 13 11 7 4 3 2 1 3 4 5 4 3 2 3 3 3 3 3 4 6 8 10 10 8 5 5 5 7 8 9 9 9 9 9 8 8 9 10 11 12 13 13 13 12 11 9 8 7 7 6 6 6 6 6 7 7 7 8 7 8 9 8 8 9 9 9 9 10 11 11 12 12 12 12 13 13 14
32 31 29 27 27 22 14 12 13 12 10 8 8 8 7 6 5 4 3 3 4 5 6 7 7 8 9 10 11 12 10 6 4 5 6 7 8 8 8 8 8 10 11 12 14 14 15 14 12 10 9 8 7 7 6 5 6 6 6 7 8 8 8 9 9 9 8 8 9 9 10 10 11 12 12 12 13 13 14 14 14 14 13 13 14
19 18 17 15 16 18 18 18 18 18 19 18 17 16 14 12 10 9 8 9 9 11 12 12 12 12 12 12 11 8 5 4 4 6 8 9 9 9 10 12 13 15 15 15 15 13 12 10 8 7 6 6 6 6 6 6 6 8 8 8 8 8 8 8 9 10 11 11 12 12 13 13 13 14 14 14 13 12 13 13 14 14 15 15 16
5 5 6 5 4 4 6 8 9 11 14 15 15 15 15 14 14 14 13 13 13 13 12 10 10 9 8 7 6 6 6 8 9 11 11 11 12 14 16 16 15 14 13 11 10 8 7 7 6 6 5 6 6 7 8 8 8 8 8 8 9 9 10 11 12 13 14 14 14 14 13 13 12 12 12 13 13 13 12 12 12 13 14 17 18
6 5 4 5 5 5 5 5 6 7 9 11 13 13 14 14 13 12 11 10 8 6 5 5 5 6 6 7 8 8 9 10 10 12 13 14 15 15 14 12 11 9 8 7 7 6 6 6 6 6 7 8 8 8 8 8 8 8 9 10 12 13 14 14 14 13 12 12 12 11 10 10 10 11 11 12 13 15 16 17 16 16 16 18 18
9 9 9 10 10 10 10 9 8 7 6 6 5 4 4 4 3 3 3 3 3 3 4 6 7 7 7 8 8 9 12 13 14 15 15 15 13 11 10 8 8 7 7 6 6 6 6 7 7 8 8 8 7 7 8 9 10 12 13 13 13 13 12 11 9 9 8 8 8 8 9 10 11 12 14 15 16 18 19 20 20 20 21 21 21
10 10 10 11 12 12 12 11 10 9 8 7 6 5 5 5 5 5 5 6 7 8 8 9 9 10 12 13 14 16 16 15 14 13 12 11 9 8 8 7 6 6 6 6 7 7 8 8 8 8 7 8 9 10 11 12 13 14 13 12 11 9 8 7 7 6 6 7 8 9 11 13 15 17 18 19 20 20 20 20 20 20 21 22 23
11 10 9 8 9 9 8 8 8 8 7 6 5 5 5 6 7 8 9 11 12 13 13 14 14 15 15 16 15 14 13 12 11 10 10 10 8 7 7 7 7 7 7 8 8 8 8 8 8 8 9 11 12 13 14 14 13 12 10 8 7 6 5 5 6 7 8 10 12 14 16 17 19 20 20 20 21 21 21 21 21 22 23 23 23
3 4 4 5 5 5 5 5 4 2 2 3 4 7 8 10 12 13 14 14 14 15 15 15 15 14 14 13 12 12 11 10 9 9 9 8 7 6 7 7 8 8 8 8 7 7 8 8 10 11 12 13 13 13 12 10 9 8 6 6 6 6 6 6 7 9 11 14 17 19 21 21 21 21 20 20 20 21 21 22 22 24 24 24 23
5 5 6 6 7 7 6 6 6 6 8 9 11 13 13 14 14 14 14 14 13 13 13 13 13 12 10 10 9 9 9 9 9 8 8 8 8 8 8 8 8 8 8 8 8 8 10 11 13 14 13 13 11 9 8 7 6 6 6 6 6 7 9 10 12 15 17 18 20 20 20 20 20 19 19 19 21 22 22 22 22 23 23 22 22
12 11 12 12 12 12 11 12 12 12 14 14 15 15 14 13 13 13 13 13 12 12 11 10 10 9 9 9 8 8 7 7 8 8 8 9 10 9 9 8 8 8 8 9 11 13 14 14 13 11 10 9 7 6 6 5 6 7 7 7 9 11 13 15 18 21 21 21 21 20 19 20 20 21 21 22 23 23 23 21 20 20 19 18 17
14 14 14 14 14 14 14 15 15 14 15 14 14 13 12 12 12 12 12 12 11 11 10 10 10 9 9 8 7 7 7 7 7 8 9 9 8 8 7 7 8 9 12 13 14 14 13 11 9 8 7 6 6 5 6 6 8 8 8 11 15 17 18 20 22 22 21 21 21 21 21 22 22 22 21 21 20 19 19 17 17 16 14 13 13
12 13 13 13 14 15 15 15 14 14 13 12 12 12 12 12 12 11 10 10 10 10 10 9 9 8 8 8 8 8 9 9 8 7 6 6 6 7 7 9 12 14 15 14 13 11 9 8 7 6 6 6 7 6 6 8 9 10 14 19 22 21 21 22 22 21 21 21 21 21 22 21 20 20 18 17 17 16 15 15 15 15 14 13 13
11 12 13 13 14 14 14 14 13 13 12 11 11 11 11 10 10 9 9 10 9 9 9 9 8 8 9 9 9 9 8 8 7 6 5 6 6 8 10 13 15 14 12 10 8 8 7 7 7 6 6 6 7 6 7 10 13 15 19 23 23 21 21 21 21 21 21 21 21 20 20 18 17 17 16 16 16 15 15 14 13 13 13 13 13
13 13 13 15 15 15 14 13 12 12 11 10 10 10 10 10 10 10 10 9 9 8 8 8 9 9 9 9 9 8 7 7 6 6 6 7 9 12 14 14 12 9 7 7 6 6 6 6 7 7 6 7 7 7 11 16 17 18 21 22 20 19 20 21 22 22 21 20 18 17 16 16 15 15 15 15 15 15 15 14 14 13 13 13 14
11 12 13 14 14 13 12 11 11 11 11 11 11 10 10 10 9 9 9 8 9 9 9 9 9 9 9 8 7 6 6 6 7 8 11 14 16 15 13 10 8 6 6 6 5 5 5 6 7 7 7 9 10 13 17 21 20 20 22 22 20 20 21 20 19 18 16 16 16 16 17 17 16 16 15 14 13 13 13 13 13 13 13 14 14
11 11 11 11 10 10 10 11 11 11 11 11 11 10 9 9 9 9 9 9 10 10 9 9 8 7 7 6 6 6 7 8 10 13 16 16 14 11 9 8 7 5 5 4 4 4 5 6 7 8 11 13 16 19 22 23 21 20 21 21 20 19 17 15 15 15 16 16 16 16 15 14 13 12 10 9 9 9 9 11 12 12 14 15 14
10 10 9 9 10 10 11 11 11 11 10 10 9 9 9 9 10 10 10 10 10 9 8 7 6 6 5 5 6 7 8 10 13 16 16 12 8 7 7 7 6 5 4 4 4 4 6 7 8 11 13 17 19 21 23 22 20 20 19 18 17 15 15 16 17 17 16 14 13 11 9 9 8 7 7 7 7 8 9 11 12 13 15 16 15
10 10 10 10 10 10 10 10 9 9 9 9 9 9 10 10 10 9 9 9 8 7 6 5 5 5 5 7 8 9 11 14 16 14 10 6 4 5 6 6 6 5 3 4 5 6 7 9 11 14 17 19 20 20 20 20 20 19 17 17 17 17 18 17 15 13 11 9 8 7 7 7 7 7 8 8 8 9 11 13 14 16 16 17 16
11 11 10 10 10 10 10 10 9 9 9 8 8 9 9 9 9 8 8 7 6 5 4 5 5 6 8 9 9 12 15 16 13 8 5 5 5 5 5 5 6 5 5 6 7 8 10 12 16 19 20 21 21 20 19 18 17 17 19 20 20 19 16 13 10 9 8 8 8 8 8 8 9 8 8 9 9 11 14 16 16 16 17 17 16
10 10 9 10 9 9 9 9 9 10 9 9 10 10 10 9 8 7 7 5 5 5 5 6 8 8 9 10 12 16 16 12 7 5 5 5 5 4 4 4 5 6 7 8 9 11 14 17 19 21 21 20 20 19 18 18 18 19 19 18 15 12 10 9 9 9 9 10 10 10 10 9 9 8 9 10 12 14 17 18 17 16 16 16 14
10 10 9 9 9 9 9 9 9 10 9 9 10 9 8 8 6 5 5 5 6 7 7 8 8 8 10 13 17 16 11 6 5 5 5 5 5 5 5 5 5 6 8 10 12 15 17 20 21 21 20 19 18 18 18 19 19 17 14 11 10 9 9 10 10 10 11 11 10 10 9 9 9 10 11 13 15 18 20 19 17 17 16 15 14
9 9 9 9 9 9 9 9 9 9 9 9 9 8 7 6 5 5 6 6 7 8 7 8 9 11 14 17 16 12 7 6 6 6 6 6 6 6 6 7 8 9 10 12 16 18 19 20 20 20 19 17 17 18 18 18 15 12 10 9 9 9 10 10 10 10 10 10 10 9 9 9 10 13 16 18 19 20 21 19 17 16 15 15 14
9 9 9 10 10 10 11 11 11 10 10 8 7 6 5 5 5 6 7 7 8 8 8 9 12 15 17 16 12 8 7 7 7 7 7 8 7 7 8 8 9 10 12 16 18 19 19 19 18 18 17 17 18 18 16 13 11 10 10 10 10 10 10 10 10 10 10 10 9 9 10 11 14 17 20 21 20 20 20 20 17 15 14 15 14
10 11 11 11 11 11 11 10 10 9 7 6 6 5 6 7 7 8 8 8 8 8 10 12 15 16 15 12 10 8 8 8 8 8 8 8 8 8 8 9 11 14 16 18 19 19 18 18 18 18 18 18 17 14 11 10 9 9 10 10 9 9 9 9 10 10 9 9 9 10 12 15 18 20 21 21 20 19 20 19 17 15 14 15 14
11 11 11 11 11 10 9 8 7 6 5 5 6 6 7 8 8 8 8 8 8 10 12 14 15 14 13 11 10 9 9 9 9 9 8 8 8 9 11 13 14 16 17 19 19 18 17 18 18 18 17 15 12 10 9 9 9 9 9 9 8 9 9 9 9 9 9 9 11 13 17 19 20 21 21 20 19 18 18 17 15 14 14 15 14
10 10 10 9 8 8 7 6 5 5 6 7 8 9 9 9 8 7 8 9 10 11 12 13 13 12 11 11 10 10 9 10 10 10 10 10 10 11 13 14 15 17 18 19 18 17 18 18 18 16 14 12 10 9 10 10 9 9 9 8 8 8 8 8 9 9 10 12 15 18 20 20 20 20 20 20 18 16 16 15 13 14 15 15 13
10 9 9 8 7 7 6 6 7 7 8 9 9 9 8 7 7 8 8 9 10 11 12 12 12 12 11 11 11 11 10 10 9 8 9 10 12 14 15 16 17 17 18 19 19 18 19 18 16 13 11 10 10 9 9 9 9 8 8 8 8 8 8 9 10 10 12 16 19 20 19 19 20 21 20 19 16 14 14 13 12 15 16 14 12
8 8 7 7 7 7 7 8 8 9 9 9 9 8 7 7 8 9 9 10 11 11 12 12 12 11 11 11 11 11 10 9 9 9 10 11 13 15 16 16 16 17 18 19 18 17 17 15 12 10 9 10 9 9 9 8 8 8 8 8 8 8 8 9 10 13 17 20 20 18 18 19 21 21 19 17 15 13 12 12 13 16 16 13 12
7 8 7 8 9 9 9 9 9 9 9 8 7 7 7 7 9 9 10 11 11 11 12 11 11 11 11 11 11 11 9 9 9 9 11 13 15 16 16 15 15 16 17 17 16 16 15 12 10 9 9 9 9 8 8 8 8 8 8 8 8 8 9 10 13 16 20 20 18 17 19 20 20 19 17 15 14 12 11 13 15 16 15 13 13
8 8 8 9 9 9 9 9 9 9 8 7 6 7 8 9 10 11 11 11 11 11 12 11 11 11 11 11 11 10 9 9 10 10 12 15 16 16 15 15 15 16 16 16 16 15 13 11 10 9 9 9 8 7 7 8 8 8 8 8 9 9 10 12 16 19 19 18 17 19 20 19 18 17 16 14 12 11 12 14 16 16 14 13 13
8 8 9 9 9 9 9 9 8 7 7 7 7 9 10 11 12 12 11 11 11 11 11 11 11 11 11 12 11 10 10 11 11 12 14 16 17 16 15 16 17 17 16 16 15 13 11 10 10 9 9 8 8 7 8 8 9 9 9 9 9 10 12 15 18 19 18 17 18 20 19 17 16 16 14 12 11 12 14 16 17 15 13 13 13
8 8 9 8 8 9 9 8 7 6 6 7 8 10 12 13 13 12 11 11 10 11 11 11 11 11 12 11 10 9 10 10 11 13 16 17 16 16 16 17 17 17 16 15 13 12 10 9 8 8 7 7 7 7 8 9 9 9 9 9 10 12 14 17 19 18 17 18 19 18 16 15 15 15 13 12 11 13 16 17 16 14 13 13 13
8 8 8 8 9 9 8 7 5 5 5 7 9 11 13 13 12 11 11 10 10 11 11 11 11 12 12 12 11 11 12 12 13 16 18 17 16 17 17 18 17 16 14 13 12 11 10 9 9 8 7 6 7 7 8 9 9 9 9 10 11 14 17 19 18 16 17 18 17 15 14 15 15 14 12 11 13 16 18 16 14 13 13 13 12
8 8 8 8 8 8 6 5 4 4 5 7 10 12 14 13 12 11 11 11 11 11 11 11 11 11 11 11 12 13 13 14 16 18 17 16 17 17 17 17 15 13 12 11 10 10 9 9 8 7 7 7 8 8 8 9 9 9 10 11 14 17 19 18 16 15 16 17 15 14 15 15 15 13 12 12 15 18 17 15 14 14 14 13 11
8 8 7 8 8 7 6 5 4 4 5 7 10 13 14 13 12 11 11 11 11 11 11 11 11 12 12 11 12 13 13 14 16 16 15 15 16 16 15 14 12 11 10 9 9 9 7 7 7 7 7 7 7 8 9 10 10 10 10 13 17 20 19 17 16 15 16 15 13 14 15 15 14 13 11 13 17 18 16 14 14 13 14 12 10
8 7 7 8 8 7 6 5 4 4 4 7 11 14 14 13 12 12 11 11 11 11 11 11 11 12 12 12 13 15 15 14 15 15 14 14 15 14 13 12 11 10 10 9 8 8 7 6 6 6 6 7 8 9 9 10 10 11 12 15 20 20 18 16 16 15 14 13 13 14 16 15 14 12 11 14 18 17 15 14 14 13 13 11 9
6 7 8 8 7 7 6 5 4 3 5 9 13 14 13 12 12 11 11 11 12 12 11 11 12 12 13 14 15 16 15 15 15 15 14 14 14 13 12 11 11 10 10 9 8 8 7 6 7 7 7 8 8 9 10 11 11 11 14 18 21 20 18 16 15 13 13 13 14 15 16 14 13 11 11 15 18 17 15 14 14 13 12 10 10
7 8 8 7 7 7 6 5 3 3 6 11 13 13 13 12 12 11 12 12 13 12 11 11 12 13 14 15 16 16 15 15 16 15 14 14 13 12 11 10 10 10 9 9 9 8 8 7 8 8 8 8 9 10 12 12 11 12 16 20 21 19 18 16 14 12 12 13 15 16 16 13 12 11 12 15 18 16 15 14 13 12 11 9 11
8 8 7 7 8 7 5 4 4 4 8 11 13 13 13 12 12 12 13 13 13 12 12 12 14 14 15 16 16 15 15 15 14 13 13 12 11 10 10 9 9 9 9 9 9 9 8 8 8 8 9 10 11 12 12 12 12 15 19 21 20 19 18 15 12 12 13 14 16 17 15 13 12 11 12 16 17 16 15 14 13 11 9 10 14
8 8 8 8 7 6 5 4 4 5 9 12 13 13 13 13 13 14 14 13 13 12 12 14 15 15 15 16 15 14 14 14 13 12 12 11 10 10 9 9 8 8 8 9 9 9 9 9 9 9 10 11 12 13 13 13 15 18 20 20 20 19 17 13 11 12 14 16 17 16 14 12 11 11 13 16 17 15 15 14 11 9 9 13 18
8 8 8 7 6 6 5 4 4 7 10 12 13 13 13 13 14 14 13 13 13 13 14 16 16 15 15 15 14 14 14 13 12 12 11 10 10 9 8 8 8 8 9 9 9 9 9 9 9 10 11 12 13 13 13 14 18 20 20 19 20 19 16 12 11 14 16 17 16 15 13 12 11 11 14 16 16 16 15 12 9 9 13 17 20
8 8 7 7 6 5 4 3 6 9 12 13 14 14 13 14 14 13 13 13 13 14 16 16 14 13 14 14 14 14 14 13 12 12 11 10 9 9 8 8 8 8 9 9 9 9 10 10 10 11 12 13 13 14 15 18 20 20 19 19 20 19 13 10 11 15 17 16 15 14 14 13 11 12 15 16 16 16 14 10 8 12 17 20 19
8 8 7 7 5 4 3 5 8 11 13 14 14 13 13 14 13 13 14 14 14 15 17 15 12 12 14 14 14 14 13 12 11 11 10 9 9 8 8 8 8 9 10 10 10 10 10 10 11 12 12 13 15 17 18 19 19 19 19 21 20 16 10 8 12 17 17 16 14 14 14 13 12 13 15 17 16 15 11 8 10 16 19 19 15
7 7 7 6 4 3 5 8 11 13 14 14 14 14 14 14 14 14 15 15 15 16 16 13 11 13 14 14 13 13 12 11 11 10 9 9 8 8 8 8 9 9 10 9 10 10 10 11 12 12 13 15 18 19 20 19 20 20 20 21 19 13 7 7 13 17 18 16 14 14 14 13 13 15 17 17 15 13 9 9 14 19 18 14 11
7 7 6 4 3 5 9 12 14 14 14 15 14 13 13 14 15 16 16 15 15 15 14 11 12 14 14 13 13 12 11 11 10 9 9 9 8 8 9 9 9 10 10 10 10 10 11 11 11 12 15 18 21 21 21 21 21 21 21 20 16 11 6 7 13 18 17 15 14 14 14 13 14 16 17 16 13 10 10 13 18 19 15 11 11
6 5 4 4 5 10 13 15 14 15 15 15 14 13 14 15 16 17 16 15 14 13 12 11 13 14 13 13 12 11 10 10 9 9 9 9 8 8 9 9 9 10 10 10 10 11 11 10 12 14 18 21 22 22 22 23 22 22 21 18 14 9 6 8 14 17 16 15 15 14 14 14 16 17 17 14 10 10 13 17 19 16 12 11 11
5 4 5 7 11 15 16 15 14 14 14 14 14 15 16 17 17 16 15 14 12 11 11 12 13 13 13 12 11 11 10 9 9 9 9 9 8 9 10 10 10 11 10 10 11 11 10 11 14 17 19 20 22 24 24 24 23 21 19 17 13 9 7 9 14 16 16 16 16 14 14 16 17 17 15 11 9 12 16 18 16 13 11 12 12
Height
5578 5579 5580 5581 5581 5582 5583 5583 5584 5584 5584 5584 5584 5584 5585 5586 5586 5586 5587 5587 5587 5586 5586 5585 5584 5584 5583 5582 5582 5581 5580 5579 5579 5578 5577 5576 5575 5574 5572 5571 5569 5567 5565 5564 5562 5560 5558 5556 5554 5552 5550 5547 5545 5542 5540 5538 5536 5533 5531 5529 5527 5526 5523 5520 5518 5513 5507 5506 5506 5502 5500 5497 5494 5493 5491 5485 5480 5476 5472 5469 5465 5462 5459 5455 5450
5570 5571 5572 5573 5573 5574 5575 5576 5576 5576 5576 5577 5577 5578 5578 5579 5579 5579 5579 5579 5579 5578 5578 5577 5576 5576 5575 5574 5574 5573 5572 5571 5570 5570 5569 5568 5567 5566 5564 5563 5561 5559 5557 5555 5553 5551 5549 5547 5544 5542 5539 5536 5534 5532 5530 5528 5525 5522 5520 5519 5517 5515 5513 5509 5506 5503 5497 5493 5493 5490 5487 5484 5481 5479 5477 5473 5468 5464 5459 5455 5450 5446 5443 5440 5436
5562 5563 5564 5565 5566 5566 5567 5568 5568 5569 5569 5570 5571 5571 5572 5572 5572 5572 5572 5572 5571 5571 5570 5569 5569 5568 5567 5567 5566 5565 5564 5564 5563 5562 5561 5560 5559 5557 5556 5554 5552 5550 5548 5545 5544 5542 5539 5537 5535 5532 5529 5526 5524 5522 5520 5518 5515 5512 5509 5508 5506 5503 5500 5498 5495 5492 5487 5482 5479 5477 5473 5470 5467 5466 5464 5459 5455 5451 5447 5442 5436 5432 5428 5425 5421
5554 5555 5556 5557 5558 5559 5559 5560 5561 5562 5562 5563 5564 5564 5564 5565 5565 5565 5564 5564 5563 5563 5562 5562 5561 5560 5560 5559 5558 5558 5557 5556 5555 5554 5553 5552 5550 5549 5547 5545 5543 5541 5538 5536 5534 5532 5530 5528 5525 5522 5519 5517 5515 5512 5510 5507 5504 5502 5499 5497 5495 5491 5488 5485 5482 5479 5477 5472 5467 5463 5460 5457 5453 5451 5450 5446 5440 5436 5433 5429 5423 5418 5414 5409 5405
5547 5548 5548 5549 5550 5551 5552 5553 5554 5554 5555 5556 5556 5557 5557 5557 5557 5557 5556 5556 5556 5555 5555 5554 5554 5553 5552 5552 5551 5550 5549 5548 5547 5546 5544 5543 5542 5541 5539 5536 5534 5532 5530 5528 5526 5523 5521 5519 5516 5514 5510 5507 5505 5502 5500 5497 5494 5491 5489 5485 5482 5479 5476 5472 5469 5466 5464 5460 5456 5450 5446 5444 5440 5436 5435 5433 5427 5422 5418 5413 5408 5403 5401 5395 5389
5540 5541 5542 5542 5544 5544 5545 5546 5547 5547 5548 5549 5549 5549 5549 5549 5549 5549 5549 5548 5548 5548 5547 5547 5546 5546 5545 5544 5543 5542 5541 5540 5539 5537 5536 5535 5534 5532 5530 5528 5525 5523 5521 5519 5517 5514 5512 5509 5507 5504 5501 5497 5495 5492 5489 5487 5484 5480 5478 5475 5471 5467 5464 5460 5456 5453 5450 5446 5443 5439 5433 5430 5427 5422 5419 5417 5413 5409 5405 5400 5392 5386 5384 5381 5374
5534 5535 5535 5536 5537 5538 5539 5539 5540 5540 5541 5541 5542 5542 5542 5542 5542 5542 5541 5541 5541 5541 5540 5540 5539 5538 5537 5536 5535 5534 5533 5532 5530 5529 5528 5527 5526 5524 5522 5519 5517 5514 5512 5510 5508 5505 5502 5500 5497 5494 5491 5488 5485 5482 5479 5477 5474 5470 5466 5463 5459 5455 5451 5447 5443 5440 5436 5432 5429 5425 5421 5416 5413 5409 5405 5401 5397 5393 5390 5388 5382 5374 5369 5364 5358
5529 5529 5530 5530 5531 5531 5532 5533 5533 5534 5534 5534 5535 5535 5535 5535 5535 5535 5534 5534 5534 5534 5533 5533 5531 5530 5529 5528 5527 5526 5525 5523 5521 5520 5519 5518 5518 5516 5513 5510 5508 5505 5503 5501 5498 5496 5493 5490 5488 5485 5482 5479 5475 5472 5468 5466 5463 5460 5456 5452 5448 5443 5439 5435 5431 5428 5423 5419 5415 5412 5408 5403 5399 5396 5391 5386 5383 5378 5372 5369 5367 5363 5358 5351 5342
5523 5523 5524 5524 5525 5525 5526 5526 5527 5527 5528 5528 5528 5528 5528 5528 5528 5528 5528 5527 5527 5527 5526 5525 5524 5522 5521 5520 5519 5518 5516 5515 5513 5511 5510 5510 5510 5507 5504 5502 5499 5497 5495 5492 5490 5487 5484 5481 5479 5476 5473 5469 5465 5462 5458 5454 5451 5448 5445 5441 5436 5432 5427 5423 5419 5416 5411 5406 5401 5398 5395 5389 5385 5381 5377 5372 5368 5364 5359 5353 5349 5347 5344 5340 5330
5516 5517 5517 5518 5518 5519 5520 5520 5521 5521 5521 5522 5522 5522 5522 5521 5521 5521 5521 5520 5520 5520 5519 5518 5516 5515 5514 5513 5511 5510 5508 5506 5505 5503 5502 5502 5501 5499 5496 5493 5491 5488 5486 5484 5481 5478 5475 5472 5469 5466 5463 5460 5455 5451 5447 5443 5440 5436 5433 5430 5426 5421 5416 5411 5407 5404 5400 5394 5388 5385 5382 5376 5371 5367 5363 5359 5355 5351 5345 5339 5336 5333 5329 5327 5321
5510 5511 5511 5512 5512 5513 5513 5514 5514 5514 5515 5515 5515 5515 5515 5514 5514 5514 5514 5513 5512 5512 5511 5510 5509 5507 5506 5505 5503 5502 5500 5498 5497 5495 5493 5494 5493 5491 5488 5485 5482 5480 5478 5475 5472 5469 5466 5463 5460 5457 5453 5449 5445 5441 5437 5432 5428 5425 5421 5418 5415 5410 5406 5401 5396 5392 5387 5382 5375 5371 5368 5364 5358 5353 5349 5346 5342 5338 5332 5326 5323 5321 5316 5312 5310
5504 5504 5505 5505 5506 5507 5507 5507 5508 5508 5508 5508 5508 5508 5507 5507 5507 5507 5506 5505 5504 5504 5504 5503 5502 5500 5498 5497 5496 5494 5493 5491 5489 5487 5484 5485 5485 5483 5480 5477 5474 5472 5469 5467 5464 5461 5457 5453 5449 5446 5443 5439 5435 5431 5426 5422 5417 5413 5410 5407 5404 5398 5393 5389 5385 5381 5375 5369 5364 5358 5354 5351 5346 5341 5337 5334 5331 5327 5321 5315 5310 5308 5304 5299 5295
5497 5498 5499 5499 5500 5500 5500 5501 5501 5501 5501 5501 5500 5500 5500 5499 5499 5499 5498 5498 5497 5496 5496 5495 5494 5493 5492 5490 5488 5487 5485 5483 5481 5479 5476 5476 5476 5475 5472 5468 5465 5463 5460 5458 5455 5451 5447 5443 5439 5436 5432 5429 5426 5421 5417 5411 5406 5401 5398 5395 5392 5386 5380 5375 5372 5368 5363 5358 5353 5347 5342 5339 5335 5330 5326 5322 5321 5316 5311 5306 5301 5297 5294 5288 5283
5491 5491 5492 5493 5493 5494 5494 5494 5494 5494 5494 5494 5493 5493 5493 5492 5492 5491 5491 5490 5490 5489 5489 5488 5487 5486 5484 5483 5482 5480 5479 5476 5473 5470 5468 5468 5467 5466 5463 5459 5456 5454 5451 5448 5445 5441 5438 5434 5430 5426 5423 5420 5416 5412 5408 5401 5394 5389 5386 5384 5379 5373 5367 5363 5358 5355 5350 5346 5342 5337 5332 5327 5323 5320 5315 5311 5309 5306 5300 5296 5293 5289 5285 5279 5273
5484 5485 5486 5486 5486 5487 5487 5487 5488 5487 5487 5487 5487 5486 5486 5486 5485 5485 5484 5483 5483 5482 5482 5481 5480 5479 5477 5476 5474 5473 5472 5470 5467 5463 5459 5459 5459 5458 5455 5451 5447 5445 5441 5438 5435 5432 5429 5426 5422 5418 5414 5411 5407 5403 5399 5391 5383 5377 5374 5371 5366 5360 5355 5351 5346 5342 5338 5333 5330 5326 5321 5317 5312 5308 5305 5301 5299 5296 5291 5287 5284 5281 5277 5272 5266
5478 5479 5479 5480 5480 5481 5481 5481 5481 5481 5481 5480 5480 5480 5479 5479 5479 5478 5477 5476 5476 5475 5474 5473 5472 5471 5470 5469 5467 5466 5464 5462 5461 5457 5452 5450 5450 5449 5447 5442 5439 5436 5432 5429 5426 5423 5420 5417 5413 5410 5405 5401 5398 5394 5389 5382 5373 5366 5363 5359 5353 5347 5344 5340 5335 5330 5326 5322 5319 5315 5311 5307 5302 5298 5295 5291 5289 5287 5282 5278 5273 5270 5267 5264 5259
5473 5473 5473 5474 5474 5475 5475 5475 5475 5475 5474 5474 5474 5473 5473 5473 5472 5471 5471 5470 5469 5468 5467 5466 5465 5463 5462 5461 5459 5458 5456 5454 5453 5451 5446 5442 5441 5440 5438 5435 5431 5427 5424 5421 5418 5414 5410 5406 5403 5400 5396 5392 5388 5384 5380 5373 5363 5358 5355 5349 5341 5336 5332 5329 5324 5320 5316 5312 5308 5305 5301 5298 5293 5289 5285 5281 5279 5277 5273 5269 5264 5260 5257 5254 5251
5467 5468 5468 5468 5469 5469 5469 5469 5469 5469 5468 5468 5468 5467 5467 5466 5466 5465 5464 5463 5462 5461 5460 5459 5458 5456 5455 5453 5451 5450 5448 5446 5444 5443 5439 5435 5432 5431 5430 5427 5424 5419 5416 5412 5409 5405 5401 5396 5393 5389 5385 5382 5378 5374 5371 5363 5354 5350 5347 5341 5333 5326 5322 5319 5314 5309 5305 5302 5298 5295 5292 5289 5285 5280 5276 5272 5269 5266 5263 5260 5256 5251 5247 5243 5241
5462 5462 5462 5462 5463 5463 5463 5463 5463 5463 5463 5462 5462 5461 5461 5460 5459 5459 5458 5457 5455 5454 5453 5452 5450 5449 5447 5445 5444 5442 5440 5438 5436 5434 5431 5426 5424 5422 5421 5419 5416 5412 5407 5404 5400 5396 5391 5386 5382 5379 5374 5370 5367 5364 5361 5354 5345 5341 5338 5333 5326 5319 5314 5310 5306 5301 5296 5292 5288 5285 5282 5279 5275 5271 5267 5263 5260 5256 5253 5250 5246 5242 5239 5234 5230
5456 5457 5457 5457 5457 5457 5457 5457 5457 5457 5457 5456 5456 5455 5455 5454 5453 5452 5451 5450 5449 5447 5446 5444 5443 5441 5440 5438 5436 5434 5432 5430 5427 5425 5422 5418 5415 5413 5412 5410 5408 5404 5399 5396 5392 5388 5383 5378 5373 5368 5364 5359 5355 5352 5350 5345 5338 5333 5329 5325 5320 5313 5307 5303 5299 5294 5290 5285 5280 5276 5273 5270 5266 5262 5259 5255 5251 5248 5244 5240 5236 5233 5230 5227 5222
5451 5451 5451 5451 5451 5451 5451 5451 5451 5451 5451 5450 5450 5449 5449 5448 5447 5446 5445 5443 5442 5440 5439 5437 5436 5434 5432 5430 5428 5425 5423 5421 5419 5417 5414 5411 5407 5403 5402 5401 5399 5395 5391 5387 5383 5380 5375 5370 5364 5359 5354 5349 5345 5341 5338 5334 5330 5325 5321 5318 5313 5308 5302 5297 5292 5288 5284 5279 5274 5270 5266 5263 5259 5255 5251 5247 5243 5239 5235 5231 5227 5223 5220 5217 5214
5445 5445 5445 5445 5445 5446 5445 5445 5445 5445 5445 5444 5444 5443 5442 5441 5440 5439 5438 5436 5435 5434 5432 5430 5428 5426 5424 5422 5420 5417 5415 5413 5410 5408 5406 5403 5400 5395 5392 5391 5389 5386 5383 5379 5374 5370 5366 5361 5355 5350 5345 5340 5336 5332 5328 5324 5320 5317 5313 5310 5306 5301 5296 5292 5287 5282 5278 5273 5269 5264 5260 5257 5252 5247 5243 5239 5235 5231 5227 5222 5218 5214 5211 5207 5204
5440 5440 5440 5440 5440 5440 5440 5439 5439 5439 5438 5438 5437 5436 5436 5435 5433 5432 5431 5430 5428 5427 5425 5423 5421 5419 5417 5414 5411 5409 5407 5404 5402 5400 5398 5395 5393 5389 5384 5381 5379 5376 5373 5369 5365 5361 5356 5351 5346 5340 5336 5331 5327 5323 5320 5316 5312 5308 5304 5301 5297 5293 5289 5285 5281 5277 5272 5267 5263 5258 5254 5250 5246 5241 5236 5232 5228 5224 5219 5215 5210 5206 5203 5199 5194
5434 5434 5434 5434 5434 5434 5434 5433 5433 5433 5432 5432 5431 5430 5429 5428 5427 5426 5425 5423 5422 5420 5418 5416 5414 5411 5409 5406 5404 5401 5399 5396 5394 5392 5390 5387 5385 5382 5378 5374 5370 5366 5363 5359 5355 5350 5346 5342 5337 5331 5327 5322 5318 5315 5311 5308 5304 5300 5296 5293 5289 5286 5282 5278 5274 5270 5265 5260 5256 5251 5246 5242 5238 5234 5230 5225 5221 5217 5213 5208 5203 5199 5196 5192 5187
5429 5429 5429 5429 5428 5428 5428 5428 5427 5427 5426 5426 5425 5424 5423 5422 5421 5420 5418 5417 5415 5413 5411 5408 5406 5404 5401 5399 5396 5393 5391 5389 5387 5384 5382 5379 5376 5373 5370 5366 5362 5358 5353 5349 5344 5340 5336 5332 5328 5323 5318 5314 5310 5306 5303 5300 5296 5293 5289 5286 5282 5279 5275 5271 5267 5263 5258 5253 5249 5244 5239 5235 5230 5226 5222 5218 5213 5210 5207 5202 5196 5192 5190 5187 5181
5423 5423 5423 5423 5423 5422 5422 5422 5421 5421 5420 5419 5419 5418 5417 5416 5414 5413 5412 5410 5407 5405 5403 5401 5398 5396 5393 5391 5388 5386 5383 5381 5378 5376 5374 5371 5368 5364 5361 5357 5353 5349 5345 5340 5335 5331 5327 5323 5319 5315 5310 5306 5302 5299 5295 5292 5289 5286 5283 5279 5276 5272 5268 5265 5260 5256 5252 5247 5242 5237 5232 5227 5223 5218 5214 5209 5205 5202 5200 5197 5192 5187 5184 5181 5176
5417 5418 5417 5417 5417 5417 5416 5416 5415 5415 5414 5413 5413 5412 5411 5410 5408 5406 5404 5402 5400 5398 5395 5393 5391 5388 5385 5383 5381 5378 5376 5373 5370 5368 5365 5362 5359 5356 5352 5348 5344 5340 5336 5331 5327 5322 5318 5315 5311 5308 5303 5299 5295 5292 5289 5285 5282 5279 5276 5273 5269 5266 5262 5258 5254 5250 5245 5240 5235 5230 5225 5220 5215 5211 5206 5201 5197 5195 5193 5191 5188 5183 5179 5176 5172
5412 5412 5412 5412 5411 5411 5411 5410 5410 5409 5408 5407 5407 5406 5404 5403 5401 5399 5397 5395 5393 5391 5388 5385 5383 5380 5378 5375 5373 5371 5368 5365 5362 5360 5357 5354 5350 5347 5343 5339 5335 5331 5327 5323 5318 5314 5310 5307 5304 5300 5297 5293 5289 5286 5283 5280 5276 5273 5269 5266 5263 5259 5255 5251 5247 5243 5238 5234 5229 5223 5218 5213 5208 5204 5200 5195 5190 5188 5186 5184 5181 5178 5174 5170 5167
5406 5406 5406 5406 5406 5405 5405 5404 5404 5403 5402 5401 5400 5399 5398 5396 5394 5392 5390 5388 5386 5383 5380 5377 5375 5372 5370 5367 5365 5363 5360 5357 5354 5352 5349 5345 5342 5338 5334 5330 5327 5323 5319 5315 5311 5306 5303 5299 5296 5293 5291 5287 5284 5280 5277 5274 5270 5267 5263 5260 5256 5252 5249 5245 5240 5236 5231 5227 5222 5216 5212 5207 5202 5197 5193 5189 5184 5181 5179 5178 5175 5172 5168 5165 5161
5401 5401 5401 5401 5400 5400 5399 5398 5398 5397 5396 5395 5393 5392 5391 5389 5387 5385 5383 5380 5378 5375 5372 5369 5367 5365 5362 5359 5357 5355 5352 5350 5346 5343 5340 5337 5333 5329 5326 5322 5319 5315 5312 5308 5304 5299 5296 5292 5289 5286 5284 5281 5278 5275 5271 5267 5264 5260 5256 5252 5249 5246 5242 5237 5233 5229 5224 5219 5214 5209 5205 5201 5196 5191 5187 5184 5179 5175 5173 5171 5169 5165 5162 5159 5156
5395 5395 5395 5395 5394 5394 5393 5393 5392 5391 5389 5388 5387 5385 5383 5382 5380 5378 5375 5373 5370 5367 5365 5362 5359 5357 5355 5352 5349 5346 5344 5342 5339 5336 5333 5329 5325 5321 5317 5314 5311 5308 5304 5301 5297 5292 5289 5286 5282 5280 5278 5275 5272 5269 5265 5261 5257 5253 5249 5244 5240 5237 5234 5230 5225 5221 5216 5211 5206 5201 5197 5194 5190 5186 5182 5178 5175 5171 5167 5165 5162 5160 5157 5154 5152
5390 5390 5390 5389 5389 5388 5387 5387 5386 5384 5383 5382 5380 5378 5376 5374 5372 5370 5368 5365 5363 5360 5357 5355 5352 5350 5347 5344 5342 5339 5336 5334 5332 5329 5325 5321 5317 5314 5310 5306 5303 5300 5297 5294 5291 5287 5284 5281 5277 5274 5271 5269 5265 5262 5259 5255 5251 5248 5243 5238 5233 5229 5226 5222 5218 5213 5209 5204 5199 5194 5190 5187 5183 5180 5176 5173 5169 5166 5162 5159 5156 5154 5151 5148 5146
5385 5384 5384 5383 5383 5382 5381 5380 5379 5378 5376 5375 5373 5371 5369 5367 5365 5362 5360 5358 5355 5353 5350 5348 5345 5342 5340 5337 5334 5331 5328 5326 5324 5321 5318 5314 5311 5307 5303 5300 5297 5294 5291 5288 5285 5281 5278 5275 5272 5268 5266 5263 5259 5256 5253 5249 5246 5241 5237 5232 5227 5222 5218 5214 5210 5206 5201 5197 5193 5188 5184 5181 5177 5174 5171 5167 5164 5161 5158 5155 5152 5149 5146 5144 5141
5379 5379 5378 5377 5377 5376 5375 5374 5372 5371 5370 5368 5366 5364 5362 5359 5357 5355 5353 5350 5348 5346 5343 5340 5338 5335 5332 5329 5326 5323 5320 5318 5316 5313 5310 5307 5304 5300 5297 5293 5290 5288 5285 5282 5279 5276 5272 5269 5266 5263 5260 5257 5253 5250 5246 5243 5239 5235 5231 5226 5221 5216 5211 5206 5203 5199 5195 5191 5186 5182 5179 5175 5172 5169 5166 5162 5159 5156 5153 5150 5147 5144 5141 5139 5137
5373 5373 5372 5371 5370 5370 5368 5367 5366 5364 5363 5361 5359 5357 5354 5352 5350 5348 5345 5343 5341 5339 5336 5333 5330 5328 5325 5322 5318 5315 5312 5310 5308 5305 5303 5300 5297 5294 5290 5287 5283 5281 5278 5276 5273 5270 5266 5263 5260 5257 5254 5251 5247 5244 5240 5236 5233 5229 5224 5219 5214 5209 5204 5200 5196 5192 5189 5185 5181 5177 5173 5170 5167 5164 5161 5158 5154 5151 5148 5145 5142 5140 5137 5135 5133
5367 5367 5366 5365 5364 5363 5362 5360 5359 5357 5356 5354 5352 5349 5347 5345 5343 5341 5338 5336 5334 5332 5329 5326 5323 5321 5318 5314 5311 5308 5305 5303 5300 5298 5295 5292 5290 5286 5283 5280 5277 5274 5271 5268 5266 5263 5260 5257 5254 5252 5249 5245 5242 5238 5234 5230 5226 5222 5218 5213 5208 5203 5198 5193 5190 5186 5183 5179 5176 5172 5168 5165 5162 5159 5156 5153 5149 5146 5144 5141 5138 5135 5133 5131 5129
5361 5360 5359 5358 5357 5356 5355 5354 5352 5350 5348 5347 5344 5342 5340 5338 5335 5333 5331 5329 5327 5324 5322 5319 5316 5314 5311 5307 5303 5300 5297 5295 5292 5290 5287 5284 5282 5279 5276 5273 5270 5267 5264 5262 5260 5257 5254 5251 5248 5246 5242 5239 5236 5232 5228 5224 5220 5216 5212 5207 5202 5197 5192 5188 5184 5181 5177 5174 5171 5167 5164 5160 5157 5154 5151 5148 5145 5142 5139 5136 5134 5131 5128 5126 5124
5355 5354 5353 5352 5350 5349 5348 5346 5345 5343 5341 5339 5337 5335 5333 5330 5328 5326 5324 5321 5319 5317 5314 5312 5310 5307 5304 5300 5296 5292 5289 5287 5284 5282 5279 5277 5274 5272 5269 5267 5264 5262 5259 5256 5254 5251 5248 5245 5242 5239 5236 5232 5229 5226 5222 5218 5214 5210 5205 5201 5196 5191 5186 5182 5178 5175 5173 5170 5166 5162 5159 5156 5152 5149 5147 5144 5141 5138 5135 5132 5130 5127 5125 5122 5119
5349 5347 5346 5345 5344 5342 5341 5339 5338 5336 5334 5332 5330 5328 5325 5323 5321 5318 5316 5314 5312 5309 5307 5305 5303 5300 5297 5294 5290 5286 5282 5280 5278 5275 5272 5270 5268 5266 5264 5262 5259 5257 5254 5252 5249 5246 5243 5240 5236 5233 5229 5226 5223 5219 5216 5212 5208 5203 5199 5195 5190 5185 5180 5177 5173 5170 5168 5165 5161 5158 5155 5151 5148 5145 5142 5139 5137 5134 5131 5128 5126 5123 5121 5119 5115
5342 5341 5340 5338 5337 5335 5334 5332 5331 5329 5327 5325 5323 5320 5318 5316 5313 5311 5309 5306 5304 5302 5299 5297 5295 5293 5290 5287 5284 5280 5277 5274 5272 5269 5266 5264 5262 5260 5258 5256 5254 5252 5249 5247 5244 5241 5238 5235 5231 5227 5223 5220 5216 5213 5209 5206 5201 5197 5193 5188 5184 5179 5175 5171 5168 5166 5163 5160 5156 5153 5150 5147 5144 5141 5138 5135 5132 5130 5127 5125 5122 5119 5117 5115 5112
5335 5334 5333 5332 5330 5329 5327 5325 5323 5322 5320 5317 5315 5313 5310 5308 5306 5303 5301 5299 5296 5294 5292 5289 5287 5285 5283 5280 5277 5274 5271 5268 5265 5263 5260 5258 5255 5253 5252 5250 5248 5246 5244 5241 5238 5236 5233 5229 5225 5221 5217 5213 5210 5206 5203 5199 5195 5191 5187 5182 5178 5174 5170 5166 5163 5161 5158 5155 5152 5149 5146 5143 5140 5137 5134 5131 5129 5126 5123 5121 5118 5116 5113 5111 5108
5329 5328 5326 5325 5323 5322 5320 5318 5316 5314 5312 5310 5308 5305 5303 5301 5298 5295 5293 5291 5288 5286 5284 5282 5280 5278 5275 5273 5270 5267 5264 5262 5259 5256 5254 5252 5250 5247 5245 5243 5242 5239 5237 5234 5232 5229 5227 5223 5219 5215 5211 5207 5203 5200 5196 5192 5188 5185 5181 5177 5173 5169 5165 5162 5159 5156 5154 5151 5147 5144 5142 5139 5136 5133 5130 5128 5125 5123 5120 5117 5115 5112 5110 5107 5104
5322 5321 5319 5318 5317 5315 5313 5311 5309 5307 5305 5303 5300 5298 5296 5293 5290 5288 5286 5283 5281 5278 5276 5274 5272 5270 5268 5267 5264 5261 5259 5256 5253 5251 5249 5247 5244 5242 5240 5238 5236 5233 5231 5228 5226 5223 5221 5217 5213 5209 5205 5201 5197 5193 5189 5186 5182 5178 5175 5171 5168 5164 5160 5157 5155 5152 5149 5146 5143 5140 5137 5135 5132 5129 5127 5124 5122 5119 5116 5114 5111 5109 5106 5104 5101
5315 5314 5312 5311 5310 5308 5306 5304 5302 5300 5298 5295 5293 5290 5288 5285 5283 5281 5278 5276 5274 5271 5269 5267 5265 5263 5261 5260 5258 5255 5253 5250 5248 5246 5244 5242 5239 5237 5235 5233 5230 5228 5225 5222 5220 5217 5214 5211 5208 5204 5199 5195 5191 5187 5183 5179 5176 5172 5169 5166 5162 5159 5156 5153 5151 5148 5145 5142 5139 5136 5133 5130 5128 5125 5123 5121 5118 5116 5113 5111 5108 5106 5103 5100 5097
5308 5307 5305 5304 5302 5300 5299 5297 5294 5292 5290 5288 5285 5283 5280 5278 5275 5273 5271 5269 5267 5264 5262 5260 5258 5256 5254 5253 5251 5249 5247 5244 5242 5240 5238 5236 5234 5232 5230 5227 5225 5222 5219 5216 5214 5211 5208 5205 5202 5198 5193 5189 5184 5180 5176 5173 5169 5166 5163 5160 5157 5154 5151 5149 5146 5143 5140 5138 5135 5132 5130 5127 5124 5122 5119 5117 5115 5113 5110 5107 5105 5103 5100 5097 5094
5301 5299 5298 5296 5295 5293 5291 5289 5287 5285 5282 5280 5277 5275 5272 5270 5268 5266 5264 5262 5259 5257 5255 5254 5251 5250 5248 5246 5244 5242 5240 5238 5236 5234 5233 5231 5229 5227 5224 5221 5219 5216 5214 5211 5208 5205 5201 5198 5195 5192 5188 5183 5178 5174 5170 5166 5163 5160 5158 5155 5153 5150 5147 5145 5142 5139 5136 5134 5131 5129 5126 5123 5121 5118 5116 5114 5112 5109 5107 5105 5102 5100 5097 5095 5092
5294 5292 5291 5289 5287 5285 5283 5281 5279 5277 5274 5272 5270 5267 5265 5263 5261 5259 5257 5255 5253 5251 5249 5247 5245 5244 5242 5240 5238 5236 5234 5232 5231 5229 5227 5225 5223 5221 5219 5216 5213 5211 5208 5204 5201 5198 5195 5192 5189 5185 5181 5177 5173 5168 5164 5160 5157 5155 5152 5150 5148 5146 5144 5141 5139 5136 5132 5130 5127 5125 5123 5120 5118 5115 5113 5111 5109 5107 5104 5102 5099 5097 5094 5092 5090
5286 5285 5283 5282 5280 5278 5276 5273 5271 5269 5267 5264 5262 5260 5258 5256 5254 5252 5250 5248 5246 5244 5243 5241 5239 5238 5236 5234 5232 5231 5229 5227 5225 5223 5221 5220 5218 5215 5213 5211 5208 5205 5202 5199 5195 5192 5189 5186 5182 5179 5175 5171 5167 5163 5159 5155 5152 5149 5147 5145 5143 5141 5140 5137 5135 5132 5129 5126 5124 5121 5119 5117 5114 5112 5110 5108 5106 5104 5102 5099 5097 5094 5092 5090 5088
5279 5277 5275 5274 5272 5270 5268 5265 5263 5261 5259 5257 5255 5253 5251 5249 5247 5245 5243 5242 5240 5238 5237 5235 5233 5231 5230 5228 5227 5225 5223 5222 5220 5218 5216 5214 5212 5210 5208 5205 5202 5200 5197 5193 5190 5186 5183 5179 5176 5173 5169 5165 5161 5157 5154 5150 5147 5145 5142 5140 5139 5137 5136 5134 5131 5128 5125 5123 5121 5118 5116 5114 5111 5110 5108 5106 5103 5101 5099 5097 5095 5092 5090 5088 5086
5271 5269 5268 5266 5264 5262 5260 5257 5255 5253 5251 5249 5247 5245 5244 5242 5240 5239 5237 5235 5234 5232 5231 5229 5227 5226 5224 5223 5221 5219 5218 5216 5214 5212 5210 5208 5206 5204 5202 5200 5197 5194 5191 5188 5185 5181 5177 5174 5170 5167 5163 5160 5156 5152 5149 5145 5143 5140 5138 5136 5135 5133 5132 5130 5127 5125 5122 5120 5118 5115 5113 5111 5109 5107 5105 5103 5101 5099 5097 5095 5093 5091 5089 5087 5085
5263 5261 5260 5258 5256 5254 5252 5249 5248 5246 5244 5242 5240 5238 5237 5235 5234 5232 5231 5229 5228 5227 5225 5224 5222 5220 5219 5217 5216 5214 5212 5211 5209 5207 5205 5203 5201 5199 5196 5194 5192 5189 5186 5182 5179 5175 5172 5168 5164 5161 5158 5154 5150 5147 5144 5141 5138 5136 5134 5133 5131 5130 5128 5126 5124 5121 5119 5117 5115 5112 5110 5108 5106 5104 5103 5101 5099 5097 5095 5093 5091 5089 5087 5086 5084